When you browse on this site, cookies collect data to enhance your experience and personalize the content and advertising you see.
Visit our Privacy Policy to learn more. By continuing to use the site, you agree to this use of cookies and data.
  • en France
  • Liste des pays
  • À 7 jours
  • Température de l'eau
  • Carte satellitaire
  • Carte météo
  • Widgets météo
  • user-avatar
    Se connecter

    Météo par heure à Milinow

    Ce jour, 9 Décembre, Dimanche

    Heure Température Précipitation Vent Pression Humidité
    00:00 +3°C° 0 mm 6 m/s 740 mmHg 78%
    01:00 +3°C° 0 mm 6 m/s 739 mmHg 80%
    02:00 +3°C° 0 mm 6 m/s 739 mmHg 80%
    03:00 +3°C° 0 mm 6 m/s 738 mmHg 81%
    04:00 +2°C° 0 mm 6 m/s 737 mmHg 81%
    05:00 +3°C° 0.3 mm 6 m/s 736 mmHg 82%
    06:00 +3°C° 0.3 mm 7 m/s 735 mmHg 82%
    07:00 +3°C° 0 mm 7 m/s 734 mmHg 83%
    08:00 +4°C° 0.4 mm 7 m/s 734 mmHg 81%
    09:00 +4°C° 0.4 mm 7 m/s 734 mmHg 80%
    10:00 +5°C° 0.4 mm 7 m/s 734 mmHg 79%
    11:00 +5°C° 0.3 mm 7 m/s 734 mmHg 79%
    12:00 +5°C° 0.3 mm 7 m/s 734 mmHg 79%
    13:00 +5°C° 0 mm 8 m/s 734 mmHg 78%
    14:00 +5°C° 0.2 mm 7 m/s 734 mmHg 79%
    15:00 +5°C° 0.2 mm 7 m/s 735 mmHg 80%
    16:00 +5°C° 0.2 mm 6 m/s 735 mmHg 81%
    17:00 +5°C° 0.1 mm 6 m/s 735 mmHg 81%
    18:00 +5°C° 0.1 mm 6 m/s 736 mmHg 82%
    19:00 +4°C° 0.1 mm 6 m/s 736 mmHg 83%
    20:00 +4°C° 0.1 mm 6 m/s 737 mmHg 83%
    21:00 +4°C° 0.1 mm 6 m/s 737 mmHg 83%
    22:00 +4°C° 0.1 mm 6 m/s 737 mmHg 82%
    23:00 +4°C° 0.3 mm 6 m/s 737 mmHg 82%

    Demain, 10 Décembre, Lundi

    Heure Température Précipitation Vent Pression Humidité
    00:00 +4°C° 0.3 mm 7 m/s 737 mmHg 81%
    01:00 +4°C° 0.3 mm 7 m/s 738 mmHg 81%
    02:00 +4°C° 0.4 mm 7 m/s 738 mmHg 80%
    03:00 +4°C° 0.4 mm 8 m/s 738 mmHg 80%
    04:00 +4°C° 0.4 mm 8 m/s 739 mmHg 79%
    05:00 +2°C° 0.2 mm 8 m/s 739 mmHg 77%
    06:00 +3°C° 0.2 mm 7 m/s 740 mmHg 74%
    07:00 +2°C° 0.2 mm 7 m/s 740 mmHg 72%
    08:00 +2°C° 0.1 mm 7 m/s 741 mmHg 71%
    09:00 +1°C° 0.1 mm 8 m/s 742 mmHg 70%
    10:00 +1°C° 0.1 mm 8 m/s 743 mmHg 70%
    11:00 +2°C° 0 mm 8 m/s 743 mmHg 68%
    12:00 +2°C° 0 mm 8 m/s 743 mmHg 66%
    13:00 +2°C° 0 mm 8 m/s 743 mmHg 64%
    14:00 +1°C° 0.1 mm 8 m/s 744 mmHg 65%
    15:00 +2°C° 0.1 mm 7 m/s 744 mmHg 66%
    16:00 +2°C° 0.1 mm 6 m/s 745 mmHg 68%
    17:00 +1°C° 0 mm 6 m/s 745 mmHg 69%
    18:00 +1°C° 0 mm 6 m/s 745 mmHg 71%
    19:00 -1°C° 0 mm 6 m/s 745 mmHg 73%
    20:00 -1°C° 0 mm 6 m/s 745 mmHg 74%
    21:00 0°C° 0 mm 5 m/s 745 mmHg 76%
    22:00 0°C° 0 mm 5 m/s 745 mmHg 78%
    23:00 -1°C° 0 mm 5 m/s 745 mmHg 80%

    Après-demain, 11 Décembre, Mardi

    Heure Température Précipitation Vent Pression Humidité
    00:00 -1°C° 0 mm 5 m/s 745 mmHg 82%
    01:00 -1°C° 0 mm 5 m/s 745 mmHg 84%
    02:00 -1°C° 0.1 mm 5 m/s 745 mmHg 85%
    03:00 -1°C° 0.1 mm 5 m/s 745 mmHg 85%
    04:00 -1°C° 0.1 mm 5 m/s 745 mmHg 85%
    05:00 0°C° 0.4 mm 4 m/s 745 mmHg 86%
    06:00 0°C° 0.4 mm 4 m/s 745 mmHg 87%
    07:00 0°C° 0.4 mm 4 m/s 745 mmHg 88%
    08:00 0°C° 0.4 mm 4 m/s 745 mmHg 89%
    09:00 +1°C° 0.4 mm 3 m/s 745 mmHg 90%
    10:00 +1°C° 0.4 mm 3 m/s 745 mmHg 91%
    11:00 +2°C° 0.2 mm 2 m/s 745 mmHg 92%
    12:00 +2°C° 0.2 mm 2 m/s 746 mmHg 92%
    13:00 +3°C° 0.2 mm 2 m/s 746 mmHg 93%
    14:00 +2°C° 0.2 mm 2 m/s 746 mmHg 94%
    15:00 +2°C° 0.2 mm 2 m/s 747 mmHg 95%
    16:00 +2°C° 0.2 mm 2 m/s 747 mmHg 96%
    17:00 +2°C° 0 mm 2 m/s 748 mmHg 96%
    18:00 +2°C° 0 mm 2 m/s 748 mmHg 96%
    19:00 +1°C° 0 mm 2 m/s 748 mmHg 96%
    20:00 +1°C° 0 mm 2 m/s 749 mmHg 96%
    21:00 +1°C° 0 mm 2 m/s 749 mmHg 96%
    22:00 +1°C° 0 mm 2 m/s 750 mmHg 96%
    23:00 +1°C° 0 mm 2 m/s 750 mmHg 96%

    12 Décembre, Mercredi

    Heure Température Précipitation Vent Pression Humidité
    00:00 0°C° 0 mm 3 m/s 751 mmHg 96%
    01:00 0°C° 0 mm 3 m/s 751 mmHg 96%
    02:00 0°C° 0 mm 3 m/s 751 mmHg 95%
    03:00 -1°C° 0 mm 3 m/s 752 mmHg 95%
    04:00 -1°C° 0 mm 3 m/s 752 mmHg 95%
    05:00 -1°C° 0 mm 2 m/s 752 mmHg 95%
    06:00 -2°C° 0 mm 2 m/s 753 mmHg 94%
    07:00 -2°C° 0 mm 2 m/s 753 mmHg 94%
    08:00 -2°C° 0 mm 2 m/s 754 mmHg 93%
    09:00 -1°C° 0 mm 2 m/s 754 mmHg 91%
    10:00 -1°C° 0 mm 2 m/s 754 mmHg 89%
    11:00 -1°C° 0 mm 2 m/s 755 mmHg 88%
    12:00 +1°C° 0 mm 2 m/s 755 mmHg 87%
    13:00 +1°C° 0 mm 2 m/s 755 mmHg 86%
    14:00 -1°C° 0 mm 2 m/s 755 mmHg 88%
    15:00 -1°C° 0 mm 2 m/s 755 mmHg 90%
    16:00 -2°C° 0 mm 2 m/s 755 mmHg 92%
    17:00 -2°C° 0 mm 2 m/s 755 mmHg 92%
    18:00 0°C° 0 mm 1 m/s 756 mmHg 92%
    19:00 0°C° 0 mm 1 m/s 756 mmHg 92%
    20:00 0°C° 0 mm 1 m/s 756 mmHg 92%
    21:00 0°C° 0 mm 1 m/s 756 mmHg 92%
    22:00 0°C° 0 mm 1 m/s 756 mmHg 92%
    23:00 0°C° 0 mm 1 m/s 756 mmHg 92%

    13 Décembre, Jeudi

    Heure Température Précipitation Vent Pression Humidité
    00:00 0°C° 0 mm 1 m/s 757 mmHg 92%
    01:00 0°C° 0 mm 1 m/s 757 mmHg 92%
    02:00 0°C° 0 mm 1 m/s 756 mmHg 92%
    03:00 0°C° 0 mm 1 m/s 756 mmHg 92%
    04:00 0°C° 0 mm 1 m/s 756 mmHg 92%
    05:00 0°C° 0 mm 1 m/s 756 mmHg 93%
    06:00 0°C° 0 mm 1 m/s 756 mmHg 93%
    07:00 0°C° 0 mm 1 m/s 756 mmHg 93%
    08:00 0°C° 0 mm 1 m/s 756 mmHg 92%
    09:00 +1°C° 0 mm 1 m/s 756 mmHg 91%
    10:00 +1°C° 0 mm 1 m/s 756 mmHg 90%
    11:00 +1°C° 0 mm 1 m/s 756 mmHg 89%
    12:00 +1°C° 0 mm 1 m/s 756 mmHg 88%
    13:00 +2°C° 0 mm 1 m/s 755 mmHg 87%
    14:00 +1°C° 0 mm 1 m/s 755 mmHg 88%
    15:00 +1°C° 0 mm 1 m/s 755 mmHg 90%
    16:00 +1°C° 0 mm 1 m/s 755 mmHg 91%
    17:00 +1°C° 0 mm 1 m/s 755 mmHg 92%
    18:00 +1°C° 0 mm 1 m/s 755 mmHg 92%
    19:00 0°C° 0 mm 1 m/s 755 mmHg 93%
    20:00 0°C° 0 mm 1 m/s 755 mmHg 93%
    21:00 0°C° 0 mm 1 m/s 755 mmHg 93%
    22:00 0°C° 0 mm 1 m/s 755 mmHg 93%
    23:00 0°C° 0 mm 1 m/s 755 mmHg 93%

    14 Décembre, Vendredi

    Heure Température Précipitation Vent Pression Humidité
    00:00 0°C° 0 mm 1 m/s 755 mmHg 92%
    01:00 0°C° 0 mm 1 m/s 755 mmHg 92%
    02:00 0°C° 0 mm 1 m/s 755 mmHg 92%
    03:00 0°C° 0 mm 1 m/s 755 mmHg 91%
    04:00 0°C° 0 mm 1 m/s 754 mmHg 91%
    05:00 0°C° 0 mm 1 m/s 755 mmHg 91%
    06:00 0°C° 0 mm 1 m/s 755 mmHg 91%
    07:00 0°C° 0 mm 1 m/s 755 mmHg 92%
    08:00 0°C° 0 mm 1 m/s 755 mmHg 91%
    09:00 0°C° 0 mm 1 m/s 755 mmHg 90%
    10:00 0°C° 0 mm 1 m/s 755 mmHg 89%
    11:00 +1°C° 0 mm 1 m/s 755 mmHg 88%
    12:00 +1°C° 0 mm 1 m/s 755 mmHg 87%
    13:00 +1°C° 0 mm 1 m/s 755 mmHg 85%
    14:00 +1°C° 0 mm 1 m/s 755 mmHg 87%
    15:00 -1°C° 0 mm 2 m/s 755 mmHg 88%
    16:00 -1°C° 0 mm 2 m/s 755 mmHg 90%
    17:00 -1°C° 0 mm 2 m/s 755 mmHg 89%
    18:00 -1°C° 0 mm 2 m/s 755 mmHg 88%
    19:00 -1°C° 0 mm 3 m/s 754 mmHg 86%
    20:00 -2°C° 0 mm 3 m/s 755 mmHg 86%
    21:00 -2°C° 0 mm 2 m/s 755 mmHg 86%
    22:00 -2°C° 0 mm 2 m/s 755 mmHg 86%
    23:00 -2°C° 0 mm 2 m/s 755 mmHg 86%
    Voir plus